SCP
0 -0 -0 -0 -0 0 0 -0 0 -0 -0 -0 0 0 -0 0 0 -0 0 0 0 0 0 0 0 0 0 0 0 0 0 1 0 0 0 0 0 0 0 0 0 0 0
0 -0 -0 -0 -0 0 -0 -0 0 -0 -0 -0 0 0 0 0 -0 -0 0 0 0 0 0 -0 0 0 0 0 0 1 1 0 0 0 0 0 0 0 0 0 0 0 0
0 0 -0 -0 -0 0 -0 -0 0 -0 -0 0 0 0 0 0 0 0 0 0 0 -0 -0 -0 0 0 0 0 0 0 0 0 0 0 0 -0 -0 -0 0 0 -0 0 0
0 0 0 -0 -0 -0 0 -0 -0 0 -0 0 -0 -0 -0 -0 0 0 0 0 -0 0 -0 -0 -0 0 0 0 0 0 0 0 0 -0 0 0 0 -0 -0 0 -0 -0 -0
0 0 0 0 0 -0 0 0 0 0 -0 -0 -0 -0 -0 -0 -0 -0 -0 -0 -0 0 0 -0 -0 -0 0 0 0 -0 0 0 0 0 -0 -0 -0 0 0 0 0 0 -0
0 0 0 0 0 0 0 0 -0 0 0 -0 0 -0 0 -0 0 -0 0 0 -0 0 0 0 0 0 -0 0 0 0 -0 0 -0 0 0 0 0 0 0 0 -0 0 0
0 0 0 0 0 0 0 0 0 0 0 0 0 0 0 0 -0 0 0 0 0 0 0 -0 -0 0 0 0 0 0 0 -0 -0 -0 0 0 0 0 0 -0 0 0 0
0 0 -0 0 0 0 0 0 0 0 0 0 0 0 0 0 0 0 0 0 0 0 0 0 0 -0 0 0 0 0 0 0 0 -0 0 0 0 0 0 0 0 0 0
0 0 0 0 0 0 0 0 0 0 0 0 0 0 0 0 0 0 0 0 0 -0 0 0 0 0 -0 -0 0 -0 0 0 0 0 0 0 0 0 0 -0 0 0 0
0 0 0 0 0 0 0 0 0 0 0 0 0 0 0 0 0 0 0 0 -0 0 -0 0 -0 -0 -0 0 0 0 0 0 0 0 0 0 0 0 0 0 0 0 0
-0 0 0 0 0 0 0 0 0 0 0 0 0 0 0 0 0 0 0 0 0 0 -0 -0 0 -0 -0 0 0 0 0 0 0 0 0 0 0 0 0 0 0 0 0
0 0 0 0 0 0 0 0 0 -0 0 0 0 0 0 0 0 0 0 0 0 0 0 0 0 0 0 0 0 0 0 -0 0 0 0 0 0 0 0 0 0 0 0
0 0 0 0 0 0 -0 0 0 0 0 0 0 0 0 0 0 0 0 0 0 0 0 0 0 0 0 0 0 0 0 0 0 0 0 0 0 0 0 0 0 0 0
0 0 -0 0 0 0 0 -0 0 0 0 0 0 0 0 0 0 0 0 0 0 0 0 0 0 0 0 0 0 0 0 0 0 0 0 0 0 0 0 0 0 0 0
0 0 0 -0 0 0 -0 0 0 0 0 0 0 0 0 0 0 0 0 0 0 0 0 0 0 0 0 0 0 0 0 0 0 0 0 0 0 0 0 0 0 0 0
0 0 0 0 0 0 0 0 0 0 0 0 0 0 0 0 0 0 0 0 0 0 0 0 0 0 0 0 0 0 0 0 0 0 0 0 0 0 0 0 0 0 0
0 0 0 0 0 0 0 0 0 0 0 0 0 0 0 0 0 0 0 0 0 0 0 0 0 0 0 0 0 0 0 0 0 0 0 0 0 0 0 0 0 0 0
0 0 0 0 0 0 0 0 0 0 0 0 0 0 0 0 0 0 0 0 0 0 0 0 0 0 0 0 0 0 0 0 0 0 0 0 0 0 0 0 0 0 0
0 0 0 0 0 0 0 0 0 0 0 0 0 0 0 0 0 0 0 0 0 0 0 0 0 0 0 0 -0 0 0 0 0 0 0 0 0 0 0 0 0 0 0
0 0 0 0 0 0 0 0 0 0 0 0 0 0 0 0 0 0 0 0 0 0 0 0 0 0 0 0 0 0 0 0 0 0 0 0 0 0 0 0 0 0 0
0 0 0 0 0 0 0 0 0 0 0 0 0 0 0 0 0 0 0 0 0 0 0 0 0 -0 0 0 0 0 0 0 0 0 0 0 0 0 0 0 0 0 0
0 0 0 0 0 0 0 0 0 0 0 0 0 0 0 0 0 0 0 0 0 0 0 0 0 0 0 0 0 0 0 0 0 0 0 0 0 0 0 0 0 0 0
0 0 0 0 0 0 0 0 0 0 0 0 0 0 0 0 0 0 0 0 0 0 0 0 0 0 0 0 0 0 0 0 0 0 0 0 0 0 0 0 0 0 0
0 0 0 0 0 0 0 0 0 0 0 0 0 0 0 0 0 0 0 0 0 0 0 0 0 0 0 0 0 0 0 0 0 0 0 0 0 0 0 0 0 0 0
0 0 0 0 0 0 0 0 0 0 0 0 0 0 0 0 0 0 0 0 0 0 0 0 0 0 0 0 0 0 0 0 0 0 0 0 0 0 0 0 0 0 0
0 0 0 0 0 0 0 0 0 0 0 0 0 0 0 0 0 0 0 0 0 0 0 0 0 0 0 0 0 0 0 0 0 0 0 0 0 0 0 0 0 0 0
Wind_Speed_500mb
56 56 60 56 44 39 43 45 37 30 33 28 25 18 27 20 15 10 9 8 14 23 8 6 16 18 17 11 6 14 8 13 7 15 17 12 8 6 2 6 14 3 6
61 66 61 54 43 56 38 42 33 31 31 33 23 23 24 24 12 11 9 11 6 10 10 6 7 8 10 10 14 9 14 9 9 10 13 6 12 18 9 9 8 5 4
60 71 62 52 47 53 44 44 41 37 34 36 27 23 23 23 18 17 14 18 10 9 14 8 8 14 9 8 12 10 12 4 8 9 10 2 7 16 17 10 15 15 15
52 70 66 64 54 49 48 43 40 30 35 39 29 25 30 20 23 22 17 21 17 10 9 4 13 8 9 15 13 7 6 9 11 3 3 8 9 1 8 14 11 13 7
41 67 62 66 59 51 49 40 37 34 36 38 28 29 22 18 21 17 13 27 21 16 10 8 11 13 12 18 12 3 3 7 13 12 6 5 3 22 7 4 17 9 13
46 40 57 64 62 55 49 49 38 35 34 32 29 24 23 25 16 9 13 21 21 25 19 16 20 19 17 9 16 11 6 9 8 14 12 10 11 10 25 15 18 10 10
32 45 53 42 72 63 58 52 39 37 37 36 33 32 31 21 9 12 18 12 14 20 23 26 25 15 15 16 13 10 15 14 7 12 9 13 24 14 7 12 20 25 12
36 35 73 49 67 62 65 58 48 35 41 35 32 30 23 14 13 12 7 11 15 12 24 25 22 17 12 10 5 19 11 17 17 9 2 4 12 20 20 19 15 18 19
42 42 42 65 43 60 70 55 47 33 40 37 35 28 26 25 19 13 13 9 9 12 21 20 22 29 20 13 14 10 12 18 17 17 17 6 10 11 13 15 17 18 10
55 51 39 51 41 63 60 50 42 36 39 40 40 35 30 30 24 20 14 10 3 3 11 16 11 22 17 17 20 21 18 16 14 15 24 18 19 26 19 17 16 19 19
93 61 56 41 63 55 61 57 40 46 42 42 41 32 29 29 27 23 17 13 11 1 8 22 22 21 16 24 29 30 30 24 22 21 26 30 28 20 21 24 26 23 17
82 66 55 51 55 58 54 60 49 57 53 51 49 38 28 33 28 25 20 15 13 14 11 15 19 20 22 26 25 24 22 24 24 21 18 24 24 22 23 25 21 19 17
61 73 69 58 60 83 70 67 66 67 57 50 33 32 29 35 33 27 27 23 18 10 11 14 10 16 25 30 28 29 26 25 28 17 18 16 13 18 24 23 21 28 30
76 83 82 74 66 90 70 82 71 66 68 54 41 30 23 29 32 27 24 23 30 25 21 18 18 15 19 21 27 27 20 20 21 21 19 19 21 23 21 17 14 18 19
47 66 75 76 62 65 66 70 64 72 68 47 38 30 27 34 32 29 21 24 28 28 29 22 24 27 19 20 25 18 15 17 21 21 22 22 23 20 20 20 20 24 29
40 48 59 65 57 50 40 43 57 61 49 43 39 37 22 21 23 23 24 23 24 37 35 31 28 28 26 23 20 16 22 22 18 18 16 24 29 25 20 18 15 17 19
34 34 37 58 57 52 50 51 42 32 23 25 33 27 22 20 21 25 18 9 13 15 27 29 27 24 22 23 20 18 20 24 26 29 27 26 28 27 24 20 16 17 20
27 26 27 32 43 40 42 36 40 34 29 26 30 27 26 25 18 14 9 9 7 14 18 24 31 28 27 24 22 20 22 24 30 27 28 25 24 26 26 25 22 21 25
22 20 24 26 27 30 32 31 33 33 43 39 31 32 26 20 16 16 12 10 14 16 16 22 22 16 14 14 15 15 15 19 20 17 21 21 19 20 20 20 20 19 18
15 8 16 24 22 23 23 26 28 30 31 33 31 26 27 22 18 14 12 13 17 22 21 20 15 14 17 17 18 18 21 21 23 21 20 18 18 17 15 15 17 19 18
10 13 22 23 21 18 19 21 20 20 19 25 30 33 33 26 21 20 18 14 17 20 18 16 19 27 27 23 19 21 18 22 26 28 26 26 26 28 28 27 28 30 32
13 23 20 19 20 21 20 19 17 18 19 19 18 17 15 17 20 18 17 16 19 21 18 15 14 16 14 11 11 15 17 20 23 23 20 21 21 21 17 13 11 11 11
26 26 27 26 22 19 14 15 18 17 18 18 17 16 17 16 18 20 20 18 20 20 19 16 10 19 18 21 18 18 15 17 16 18 17 16 12 8 3 5 7 10 11
21 12 21 23 25 22 22 18 19 22 19 17 16 17 16 17 19 18 19 19 16 17 18 16 15 14 23 24 25 15 12 14 13 11 10 11 12 11 14 10 11 15 18
12 6 11 14 19 18 19 21 21 19 18 15 13 13 14 15 14 15 16 16 15 15 15 18 24 26 27 28 22 21 23 21 16 14 13 14 12 12 13 14 18 19 23
21 17 7 5 11 16 18 19 15 13 10 9 8 8 10 4 7 12 14 15 20 21 25 29 27 29 29 32 34 32 26 19 13 12 10 6 12 11 17 20 20 20 21
Wind_Direction_500mb
159 166 161 164 166 165 162 176 173 176 180 176 162 154 165 174 172 161 167 153 158 156 122 155 167 148 113 125 123 121 87 97 45 138 161 185 209 213 149 175 104 115 54
160 161 162 169 170 163 166 179 185 182 174 178 175 167 169 178 176 173 196 180 146 173 183 140 173 184 146 153 168 66 48 78 30 40 197 224 203 197 203 247 203 165 292
163 164 167 176 169 169 173 188 191 194 191 187 188 178 182 196 187 175 173 169 190 218 211 217 213 165 135 145 158 88 17 59 99 74 37 204 218 194 177 204 204 251 249
182 167 168 173 178 182 182 199 201 200 192 194 200 194 194 187 199 213 214 174 178 207 234 209 227 194 141 175 155 59 29 2 20 20 341 45 43 344 189 178 194 166 262
178 181 182 182 183 186 188 185 194 194 187 192 196 197 184 198 217 214 222 206 188 186 215 274 267 239 164 178 181 353 246 347 357 40 2 270 288 46 83 64 193 181 249
183 188 187 184 189 187 191 192 196 199 188 196 198 195 181 203 198 207 217 187 189 193 189 223 250 248 230 203 219 200 225 250 358 3 22 344 325 66 80 294 288 315 2
202 213 209 186 189 189 195 200 195 194 196 199 194 189 187 203 213 179 179 179 186 193 206 203 235 261 215 221 230 237 247 259 285 351 19 55 27 24 319 31 343 282 317
192 197 199 198 183 189 196 195 196 188 195 197 205 204 194 184 177 154 173 234 213 200 205 210 221 234 210 183 233 250 233 232 250 265 286 338 1 33 18 355 347 307 289
197 195 208 199 191 183 193 199 196 193 195 193 191 192 192 182 172 166 185 182 244 227 194 200 225 203 219 199 235 268 233 233 245 255 246 259 288 300 320 5 19 7 308
200 202 200 199 183 179 185 191 192 207 198 190 191 197 196 200 194 187 216 208 284 291 246 235 234 185 205 220 228 248 245 252 252 238 241 243 273 264 275 279 296 341 1
206 209 207 208 212 208 195 192 201 200 206 193 194 201 194 193 203 195 193 205 210 178 194 198 204 190 207 241 243 241 243 246 270 255 246 263 262 269 272 281 271 290 323
203 204 203 214 184 203 206 214 214 211 208 200 200 200 204 192 192 195 184 204 197 198 214 221 227 217 222 233 242 245 247 242 246 245 257 260 271 292 289 273 275 280 290
203 197 196 189 202 213 227 234 217 206 210 200 193 198 209 217 218 211 198 189 229 208 259 239 250 237 239 249 253 258 256 248 255 265 264 273 264 275 282 294 287 275 278
205 202 199 188 211 210 223 219 205 206 205 204 206 206 228 225 219 227 234 226 234 222 237 242 260 249 236 238 240 245 258 262 237 242 258 264 267 271 288 296 286 288 303
158 187 197 204 221 200 199 200 204 209 207 209 220 233 261 224 219 244 254 256 245 229 239 238 242 258 258 269 269 274 250 250 238 235 242 255 259 264 265 273 283 288 299
132 157 174 188 198 186 197 186 198 210 218 227 227 241 231 229 231 229 246 260 246 236 234 240 251 267 274 278 277 269 258 258 260 266 273 272 268 265 273 274 281 287 298
161 157 169 176 179 178 174 188 200 218 208 197 204 207 218 215 212 217 238 253 247 238 237 233 237 245 251 273 278 262 248 245 252 259 267 270 279 280 281 282 272 267 279
152 162 172 176 180 165 171 189 193 188 194 198 208 205 189 194 200 201 204 213 178 200 226 227 226 230 239 262 265 264 263 254 254 263 269 271 274 274 277 281 279 274 277
151 163 169 168 177 182 191 187 178 194 200 196 199 206 199 216 209 199 199 175 169 191 206 214 222 222 224 232 240 246 247 248 259 257 259 267 276 277 281 283 283 276 277
166 153 154 158 166 168 174 186 175 180 195 189 196 210 214 212 233 225 223 233 216 214 230 243 244 261 273 268 253 242 242 258 266 269 267 272 280 287 286 295 298 296 293
141 162 150 142 143 156 167 176 178 181 190 199 201 198 197 199 207 225 221 210 214 214 220 234 265 278 282 280 258 249 242 247 261 268 273 274 278 284 293 297 292 288 290
133 143 143 140 139 143 144 148 157 167 180 179 185 185 191 205 217 211 207 217 202 214 235 248 260 276 278 290 277 271 265 264 260 266 278 285 290 293 306 315 324 326 316
106 135 149 150 149 147 151 170 169 173 170 169 173 173 179 189 198 206 209 204 200 207 222 240 251 278 293 295 301 289 281 273 280 288 281 274 277 263 139 195 171 238 281
122 110 132 138 140 144 147 155 158 158 158 165 166 168 175 185 183 186 191 192 200 205 212 214 199 246 262 288 308 309 306 289 289 286 267 250 246 234 223 228 258 294 297
143 112 143 158 157 160 160 163 161 163 174 178 185 185 194 210 210 214 219 223 227 220 219 225 227 231 254 275 292 297 305 305 293 275 247 240 242 236 234 250 264 271 278
169 167 183 214 175 176 180 176 173 173 164 159 150 161 175 183 230 237 243 252 246 245 248 248 248 246 251 264 281 287 288 283 270 242 235 276 264 253 250 256 267 281 292
Wind_Speed_850mb
56 56 60 56 44 39 43 45 37 30 33 28 25 18 27 20 15 10 9 8 14 23 8 6 16 18 17 11 6 14 8 13 7 15 17 12 8 6 2 6 14 3 6
61 66 61 54 43 56 38 42 33 31 31 33 23 23 24 24 12 11 9 11 6 10 10 6 7 8 10 10 14 9 14 9 9 10 13 6 12 18 9 9 8 5 4
60 71 62 52 47 53 44 44 41 37 34 36 27 23 23 23 18 17 14 18 10 9 14 8 8 14 9 8 12 10 12 4 8 9 10 2 7 16 17 10 15 15 15
52 70 66 64 54 49 48 43 40 30 35 39 29 25 30 20 23 22 17 21 17 10 9 4 13 8 9 15 13 7 6 9 11 3 3 8 9 1 8 14 11 13 7
41 67 62 66 59 51 49 40 37 34 36 38 28 29 22 18 21 17 13 27 21 16 10 8 11 13 12 18 12 3 3 7 13 12 6 5 3 22 7 4 17 9 13
46 40 57 64 62 55 49 49 38 35 34 32 29 24 23 25 16 9 13 21 21 25 19 16 20 19 17 9 16 11 6 9 8 14 12 10 11 10 25 15 18 10 10
32 45 53 42 72 63 58 52 39 37 37 36 33 32 31 21 9 12 18 12 14 20 23 26 25 15 15 16 13 10 15 14 7 12 9 13 24 14 7 12 20 25 12
36 35 73 49 67 62 65 58 48 35 41 35 32 30 23 14 13 12 7 11 15 12 24 25 22 17 12 10 5 19 11 17 17 9 2 4 12 20 20 19 15 18 19
42 42 42 65 43 60 70 55 47 33 40 37 35 28 26 25 19 13 13 9 9 12 21 20 22 29 20 13 14 10 12 18 17 17 17 6 10 11 13 15 17 18 10
55 51 39 51 41 63 60 50 42 36 39 40 40 35 30 30 24 20 14 10 3 3 11 16 11 22 17 17 20 21 18 16 14 15 24 18 19 26 19 17 16 19 19
93 61 56 41 63 55 61 57 40 46 42 42 41 32 29 29 27 23 17 13 11 1 8 22 22 21 16 24 29 30 30 24 22 21 26 30 28 20 21 24 26 23 17
82 66 55 51 55 58 54 60 49 57 53 51 49 38 28 33 28 25 20 15 13 14 11 15 19 20 22 26 25 24 22 24 24 21 18 24 24 22 23 25 21 19 17
61 73 69 58 60 83 70 67 66 67 57 50 33 32 29 35 33 27 27 23 18 10 11 14 10 16 25 30 28 29 26 25 28 17 18 16 13 18 24 23 21 28 30
76 83 82 74 66 90 70 82 71 66 68 54 41 30 23 29 32 27 24 23 30 25 21 18 18 15 19 21 27 27 20 20 21 21 19 19 21 23 21 17 14 18 19
47 66 75 76 62 65 66 70 64 72 68 47 38 30 27 34 32 29 21 24 28 28 29 22 24 27 19 20 25 18 15 17 21 21 22 22 23 20 20 20 20 24 29
40 48 59 65 57 50 40 43 57 61 49 43 39 37 22 21 23 23 24 23 24 37 35 31 28 28 26 23 20 16 22 22 18 18 16 24 29 25 20 18 15 17 19
34 34 37 58 57 52 50 51 42 32 23 25 33 27 22 20 21 25 18 9 13 15 27 29 27 24 22 23 20 18 20 24 26 29 27 26 28 27 24 20 16 17 20
27 26 27 32 43 40 42 36 40 34 29 26 30 27 26 25 18 14 9 9 7 14 18 24 31 28 27 24 22 20 22 24 30 27 28 25 24 26 26 25 22 21 25
22 20 24 26 27 30 32 31 33 33 43 39 31 32 26 20 16 16 12 10 14 16 16 22 22 16 14 14 15 15 15 19 20 17 21 21 19 20 20 20 20 19 18
15 8 16 24 22 23 23 26 28 30 31 33 31 26 27 22 18 14 12 13 17 22 21 20 15 14 17 17 18 18 21 21 23 21 20 18 18 17 15 15 17 19 18
10 13 22 23 21 18 19 21 20 20 19 25 30 33 33 26 21 20 18 14 17 20 18 16 19 27 27 23 19 21 18 22 26 28 26 26 26 28 28 27 28 30 32
13 23 20 19 20 21 20 19 17 18 19 19 18 17 15 17 20 18 17 16 19 21 18 15 14 16 14 11 11 15 17 20 23 23 20 21 21 21 17 13 11 11 11
26 26 27 26 22 19 14 15 18 17 18 18 17 16 17 16 18 20 20 18 20 20 19 16 10 19 18 21 18 18 15 17 16 18 17 16 12 8 3 5 7 10 11
21 12 21 23 25 22 22 18 19 22 19 17 16 17 16 17 19 18 19 19 16 17 18 16 15 14 23 24 25 15 12 14 13 11 10 11 12 11 14 10 11 15 18
12 6 11 14 19 18 19 21 21 19 18 15 13 13 14 15 14 15 16 16 15 15 15 18 24 26 27 28 22 21 23 21 16 14 13 14 12 12 13 14 18 19 23
21 17 7 5 11 16 18 19 15 13 10 9 8 8 10 4 7 12 14 15 20 21 25 29 27 29 29 32 34 32 26 19 13 12 10 6 12 11 17 20 20 20 21
Wind_Direction_850mb
159 166 161 164 166 165 162 176 173 176 180 176 162 154 165 174 172 161 167 153 158 156 122 155 167 148 113 125 123 121 87 97 45 138 161 185 209 213 149 175 104 115 54
160 161 162 169 170 163 166 179 185 182 174 178 175 167 169 178 176 173 196 180 146 173 183 140 173 184 146 153 168 66 48 78 30 40 197 224 203 197 203 247 203 165 292
163 164 167 176 169 169 173 188 191 194 191 187 188 178 182 196 187 175 173 169 190 218 211 217 213 165 135 145 158 88 17 59 99 74 37 204 218 194 177 204 204 251 249
182 167 168 173 178 182 182 199 201 200 192 194 200 194 194 187 199 213 214 174 178 207 234 209 227 194 141 175 155 59 29 2 20 20 341 45 43 344 189 178 194 166 262
178 181 182 182 183 186 188 185 194 194 187 192 196 197 184 198 217 214 222 206 188 186 215 274 267 239 164 178 181 353 246 347 357 40 2 270 288 46 83 64 193 181 249
183 188 187 184 189 187 191 192 196 199 188 196 198 195 181 203 198 207 217 187 189 193 189 223 250 248 230 203 219 200 225 250 358 3 22 344 325 66 80 294 288 315 2
202 213 209 186 189 189 195 200 195 194 196 199 194 189 187 203 213 179 179 179 186 193 206 203 235 261 215 221 230 237 247 259 285 351 19 55 27 24 319 31 343 282 317
192 197 199 198 183 189 196 195 196 188 195 197 205 204 194 184 177 154 173 234 213 200 205 210 221 234 210 183 233 250 233 232 250 265 286 338 1 33 18 355 347 307 289
197 195 208 199 191 183 193 199 196 193 195 193 191 192 192 182 172 166 185 182 244 227 194 200 225 203 219 199 235 268 233 233 245 255 246 259 288 300 320 5 19 7 308
200 202 200 199 183 179 185 191 192 207 198 190 191 197 196 200 194 187 216 208 284 291 246 235 234 185 205 220 228 248 245 252 252 238 241 243 273 264 275 279 296 341 1
206 209 207 208 212 208 195 192 201 200 206 193 194 201 194 193 203 195 193 205 210 178 194 198 204 190 207 241 243 241 243 246 270 255 246 263 262 269 272 281 271 290 323
203 204 203 214 184 203 206 214 214 211 208 200 200 200 204 192 192 195 184 204 197 198 214 221 227 217 222 233 242 245 247 242 246 245 257 260 271 292 289 273 275 280 290
203 197 196 189 202 213 227 234 217 206 210 200 193 198 209 217 218 211 198 189 229 208 259 239 250 237 239 249 253 258 256 248 255 265 264 273 264 275 282 294 287 275 278
205 202 199 188 211 210 223 219 205 206 205 204 206 206 228 225 219 227 234 226 234 222 237 242 260 249 236 238 240 245 258 262 237 242 258 264 267 271 288 296 286 288 303
158 187 197 204 221 200 199 200 204 209 207 209 220 233 261 224 219 244 254 256 245 229 239 238 242 258 258 269 269 274 250 250 238 235 242 255 259 264 265 273 283 288 299
132 157 174 188 198 186 197 186 198 210 218 227 227 241 231 229 231 229 246 260 246 236 234 240 251 267 274 278 277 269 258 258 260 266 273 272 268 265 273 274 281 287 298
161 157 169 176 179 178 174 188 200 218 208 197 204 207 218 215 212 217 238 253 247 238 237 233 237 245 251 273 278 262 248 245 252 259 267 270 279 280 281 282 272 267 279
152 162 172 176 180 165 171 189 193 188 194 198 208 205 189 194 200 201 204 213 178 200 226 227 226 230 239 262 265 264 263 254 254 263 269 271 274 274 277 281 279 274 277
151 163 169 168 177 182 191 187 178 194 200 196 199 206 199 216 209 199 199 175 169 191 206 214 222 222 224 232 240 246 247 248 259 257 259 267 276 277 281 283 283 276 277
166 153 154 158 166 168 174 186 175 180 195 189 196 210 214 212 233 225 223 233 216 214 230 243 244 261 273 268 253 242 242 258 266 269 267 272 280 287 286 295 298 296 293
141 162 150 142 143 156 167 176 178 181 190 199 201 198 197 199 207 225 221 210 214 214 220 234 265 278 282 280 258 249 242 247 261 268 273 274 278 284 293 297 292 288 290
133 143 143 140 139 143 144 148 157 167 180 179 185 185 191 205 217 211 207 217 202 214 235 248 260 276 278 290 277 271 265 264 260 266 278 285 290 293 306 315 324 326 316
106 135 149 150 149 147 151 170 169 173 170 169 173 173 179 189 198 206 209 204 200 207 222 240 251 278 293 295 301 289 281 273 280 288 281 274 277 263 139 195 171 238 281
122 110 132 138 140 144 147 155 158 158 158 165 166 168 175 185 183 186 191 192 200 205 212 214 199 246 262 288 308 309 306 289 289 286 267 250 246 234 223 228 258 294 297
143 112 143 158 157 160 160 163 161 163 174 178 185 185 194 210 210 214 219 223 227 220 219 225 227 231 254 275 292 297 305 305 293 275 247 240 242 236 234 250 264 271 278
169 167 183 214 175 176 180 176 173 173 164 159 150 161 175 183 230 237 243 252 246 245 248 248 248 246 251 264 281 287 288 283 270 242 235 276 264 253 250 256 267 281 292